Regional Weather Roundup
Issued by NWS

Home | Current Version | Previous Version | Text Only | Print | Product List | Glossary On
Versions: 1 2 3 4 5 6 7 8 9 10 11 12 13 14 15 16 17 18 19 20 21 22 23 24 25 26 27 28 29 30 31 32 33 34 35 36 37 38 39 40 41 42 43 44 45 46 47 48 49 50
000
ASMX46 KSGX 230203
RWRMX

MEXICAN WEATHER ROUNDUP
NATIONAL WEATHER SERVICE SAN DIEGO CA
700 PM PDT TUE JUL 22 2014

BAJA CALIFORNIA

CITY           SKY/WX    TMP DP  RH WIND       PRES   REMARKS
ENSENADA NW      N/A     75  32  20 W2        29.95S
LA PAZ         PTCLDY    91  64  40 N7        29.85
LORETO           N/A    N/A N/A N/A MISG        N/A
MEXICALI       CLEAR    109  30   6 NW8       29.78  HX 101
S.J. DEL CABO  PTCLDY    90  61  37 SE12      29.86S
TIJUANA        CLEAR     73  61  64 W15       30.02R

NORTHWESTERN MEXICO

CITY           SKY/WX    TMP DP  RH WIND       PRES   REMARKS
CHIHUAHUA      MOCLDY    82  57  42 NW8       30.14
CULIACAN       MOCLDY    95  75  52 NW12      29.84  HX 107
GUAYMAS        PTCLDY    99  77  49 CALM      29.76  HX 114
HERMOSILLO     PTCLDY   106  63  24 S9        29.83  HX 108
JUAREZ         RAIN      82  68  61 CALM      30.13
LOS MOCHIS     CLOUDY    91  75  59 W8        29.82S HX 102
OBREGON        MOCLDY    97  64  34 W7        29.79  HX  99

NORTHEASTERN MEXICO

CITY           SKY/WX    TMP DP  RH WIND       PRES   REMARKS
MATAMOROS        N/A    N/A N/A N/A MISG        N/A
MONTERREY      CLEAR     93  55  27 E8        29.93S
NUEVO LAREDO   PTCLDY   100  72  39 SE7       29.91  HX 109
REYNOSA        CLEAR     84  70  61 SE14      29.95
SALTILLO       PTCLDY    79  63  57 NE12      30.21R
TORREON        MOCLDY    90  50  25 E9        30.06R
VICTORIA       PTCLDY    86  64  48 S9        29.96

WESTERN MEXICO

CITY           SKY/WX    TMP DP  RH WIND       PRES   REMARKS
AGUASCALIENTES CLEAR     68  41  37 E8        30.27
COLIMA         MOCLDY    77  73  88 SW12      30.00R
DURANGO        MOCLDY    79  46  31 N5        30.24R
GUADALAJARA    PTCLDY    72  55  56 E7        30.15
MANZANILLO     PTCLDY    88  79  74 CALM      29.80R HX 102
MAZATLAN       CLOUDY    84  75  74 W10       29.84R
PTO. VALLARTA  MOCLDY    88  73  62 CALM      29.84S HX  96
TEPIC          MOCLDY    79  77  94 N3        30.08R
ZACATECAS      PTCLDY    73  36  25 SE10      30.33

CENTRAL MEXICO

CITY           SKY/WX    TMP DP  RH WIND       PRES   REMARKS
LEON           CLEAR     73  48  40 NE5       30.29R
MEXICO CITY    CLOUDY    66  52  59 S7        30.35R THUNDER
MORELIA        PTCLDY    68  48  49 SW8       30.24
POZA RICA      PTCLDY    82  75  78 E7        30.03R
PUEBLA         MOCLDY    59  54  82 NW8       30.38R
QUERETARO      CLEAR     70  52  52 NE14      30.30R
S. LUIS POTOSI CLEAR     70  50  49 SE9       30.30R
TAMPICO        CLEAR     82  73  74 E12       29.96S
TOLUCA         TSTM      55  48  76 SE18      30.47R
VERACRUZ       PTCLDY    82  75  78 NE5       29.96R

SOUTHERN MEXICO

CITY           SKY/WX    TMP DP  RH WIND       PRES   REMARKS
ACAPULCO       PTCLDY    86  79  79 W10       29.81R HX  99
OAXACA         PTCLDY    73  48  40 NE12      30.22R
TAPACHULA      MOCLDY    77  73  88 CALM      29.87R
TUX. GUTIERREZ MOCLDY    82  68  61 NW13      29.94R
VILLAHERMOSA   CLEAR     84  73  70 CALM      29.94R
ZIHUATANEJO    CLEAR     82  73  74 CALM      29.83R

YUCATAN PENINSULA

CITY           SKY/WX    TMP DP  RH WIND       PRES   REMARKS
CAMPECHE       MOCLDY    77  73  88 NE14      30.01R
CANCUN         PTCLDY    82  75  78 E3        30.04R
CHETUMAL       PTCLDY    84  77  79 E12       29.98S
COZUMEL        MOCLDY    77  75  94 CALM      30.03R
MERIDA         MOCLDY    75  70  83 E6        30.01R

$$



USA.gov is the U.S. government's official web portal to all federal, state and local government web resources and services.